This demonstration page uses our WeatherBlox Daily Observations layout. Learn more.

Hourly Observations for January 7, 2020

Temp ( °F °C ) Dew Point ( °F °C ) Humidity (%) Winds ( mph kmh ) Pressure ( in mb ) Visibility ( mi km ) Precip ( " mm )
12:15 am 00:15 Clear 32 0 21 -6 64 64 W 7 11 30.15 1021 10 16.09344 0 0
12:35 am 00:35 Clear 30 -1 25 -4 80 80 W 6 9 30.15 1021 10 16.09344 0 0
12:55 am 00:55 Clear 32 0 21 -6 64 64 Calm 30.15 1021 10 16.09344 0 0
1:15 am 01:15 Clear 34 1 21 -6 60 60 SW 7 11 30.15 1021 10 16.09344 0 0
1:35 am 01:35 Clear 28 -2 23 -5 80 80 W 5 7 30.15 1021 10 16.09344 0 0
1:55 am 01:55 Clear 30 -1 23 -5 75 75 SW 5 7 30.15 1021 10 16.09344 0 0
2:15 am 02:15 Clear 32 0 23 -5 69 69 SSW 7 11 30.15 1021 10 16.09344 0 0
2:35 am 02:35 Clear 30 -1 23 -5 75 75 Calm 30.15 1021 10 16.09344 0 0
2:55 am 02:55 Clear 30 -1 21 -6 69 69 W 3 6 30.15 1021 10 16.09344 0 0
3:15 am 03:15 Clear 32 0 21 -6 64 64 Calm 30.15 1021 10 16.09344 0 0
3:35 am 03:35 Clear 32 0 23 -5 69 69 Calm 30.15 1021 10 16.09344 0 0
3:55 am 03:55 Clear 32 0 23 -5 69 69 Calm 30.12 1020 10 16.09344 0 0
4:15 am 04:15 Clear 30 -1 23 -5 75 75 NE 3 6 30.12 1020 10 16.09344 0 0
4:35 am 04:35 Clear 30 -1 23 -5 75 75 Calm 30.12 1020 10 16.09344 0 0
4:55 am 04:55 Clear 30 -1 23 -5 75 75 Calm 30.12 1020 10 16.09344 0 0
5:15 am 05:15 Clear 30 -1 23 -5 75 75 Calm 30.12 1020 10 16.09344 0 0
5:35 am 05:35 Clear 28 -2 27 -3 93 93 Calm 30.12 1020 10 16.09344 0 0
5:55 am 05:55 Clear 28 -2 27 -3 93 93 SW 3 6 30.12 1020 10 16.09344 0 0
6:15 am 06:15 Clear 30 -1 23 -5 75 75 Calm 30.09 1019 10 16.09344 0 0
6:35 am 06:35 Clear 32 0 23 -5 69 69 ESE 6 9 30.06 1018 10 16.09344 0 0
6:55 am 06:55 Clear 30 -1 23 -5 75 75 Calm 30.09 1019 10 16.09344 0 0
7:15 am 07:15 Clear 30 -1 23 -5 75 75 Calm 30.09 1019 10 16.09344 0 0
7:35 am 07:35 Sunny 28 -2 25 -4 86 86 Calm 30.09 1019 10 16.09344 0 0
7:55 am 07:55 Sunny 30 -1 25 -4 80 80 NW 5 7 30.12 1020 10 16.09344 0 0
8:15 am 08:15 Sunny 30 -1 27 -3 86 86 Calm 30.12 1020 10 16.09344 0 0
8:35 am 08:35 Sunny 32 0 25 -4 75 75 Calm 30.12 1020 10 16.09344 0 0
8:55 am 08:55 Mostly Cloudy 32 0 27 -3 80 80 Calm 30.09 1019 10 16.09344 0 0
9:15 am 09:15 Mostly Cloudy 36 2 27 -3 70 70 Calm 30.09 1019 10 16.09344 0 0
9:35 am 09:35 Mostly Cloudy 36 2 23 -5 60 60 Calm 30.09 1019 10 16.09344 0 0
9:55 am 09:55 Cloudy 36 2 28 -2 75 75 Calm 30.09 1019 10 16.09344 0 0
10:15 am 10:15 Cloudy 37 3 27 -3 65 65 Calm 30.09 1019 10 16.09344 0 0
10:35 am 10:35 Cloudy 37 3 25 -4 60 60 Calm 30.06 1018 10 16.09344 0 0
10:55 am 10:55 Cloudy 37 3 25 -4 60 60 Calm 30.06 1018 10 16.09344 0 0
11:15 am 11:15 Cloudy 37 3 27 -3 65 65 NNW 5 7 30.03 1017 10 16.09344 0 0
11:35 am 11:35 Cloudy 36 2 28 -2 75 75 N 6 9 30.03 1017 10 16.09344 0 0
11:55 am 11:55 Cloudy 37 3 27 -3 65 65 NW 6 9 30.03 1017 10 16.09344 0 0
12:15 pm 12:15 Cloudy 37 3 30 -1 75 75 NW 3 6 30 1016 10 16.09344 0 0
12:35 pm 12:35 Cloudy 36 2 32 0 87 87 Calm 29.97 1015 2.5 4.02336 0 0
12:55 pm 12:55 Cloudy 34 1 32 0 93 93 NNE 6 9 29.97 1015 0.75 1.207008 0 0
1:15 pm 13:15 Cloudy 32 0 32 0 100 100 NNE 6 9 29.94 1014 0.5 0.804672 0 0
1:35 pm 13:35 Cloudy 32 0 32 0 100 100 NNE 10 17 29.91 1013 0.75 1.207008 0 0
1:55 pm 13:55 Cloudy 32 0 32 0 100 100 N 8 13 29.94 1014 0.75 1.207008 0 0
2:15 pm 14:15 Cloudy 32 0 32 0 100 100 N 9 15 29.91 1013 0.5 0.804672 0 0
2:35 pm 14:35 Cloudy 32 0 32 0 100 100 NNE 9 15 29.91 1013 0.5 0.804672 0 0
2:55 pm 14:55 Cloudy 32 0 32 0 100 100 NNE 9 15 29.91 1013 1 1.609344 0 0
3:15 pm 15:15 Cloudy 32 0 32 0 100 100 N 9 15 29.91 1013 1.25 2.01168 0 0
3:35 pm 15:35 Cloudy 32 0 32 0 100 100 NNE 8 13 29.94 1014 1.25 2.01168 0 0
3:55 pm 15:55 Cloudy 32 0 32 0 100 100 N 6 9 29.94 1014 0.75 1.207008 0 0
4:15 pm 16:15 Cloudy 32 0 32 0 100 100 N 5 7 29.94 1014 1 1.609344 0 0
4:35 pm 16:35 Cloudy 32 0 32 0 100 100 NNW 9 15 29.97 1015 2 3.218688 0 0
4:55 pm 16:55 Cloudy 32 0 32 0 100 100 NNW 9 15 29.97 1015 1 1.609344 0 0
5:15 pm 17:15 Cloudy 32 0 32 0 100 100 N 9 15 29.97 1015 4 6.437376 0 0
5:35 pm 17:35 Cloudy 32 0 32 0 100 100 N 5 7 30 1016 10 16.09344 0 0
5:55 pm 17:55 Cloudy 32 0 32 0 100 100 N 9 15 30 1016 10 16.09344 0 0
6:15 pm 18:15 Mostly Cloudy 30 -1 30 -1 100 100 NW 10 17 30 1016 10 16.09344 0 0
6:35 pm 18:35 Partly Cloudy 30 -1 30 -1 100 100 NW 10 17 30.03 1017 10 16.09344 0 0
6:55 pm 18:55 Mostly Cloudy 32 0 32 0 100 100 NNW 9 15 30.03 1017 10 16.09344 0 0
7:15 pm 19:15 Mostly Cloudy 30 -1 30 -1 100 100 NW 8 13 30.03 1017 10 16.09344 0 0
7:35 pm 19:35 Clear 30 -1 30 -1 100 100 NNW 7 11 30.06 1018 10 16.09344 0 0
7:55 pm 19:55 Clear 28 -2 28 -2 100 100 Calm 30.06 1018 10 16.09344 0 0
8:15 pm 20:15 Clear 28 -2 28 -2 100 100 Calm 30.06 1018 10 16.09344 0 0
8:35 pm 20:35 Clear 28 -2 28 -2 100 100 Calm 30.06 1018 10 16.09344 0 0
8:55 pm 20:55 Clear 28 -2 28 -2 100 100 Calm 30.06 1018 10 16.09344 0 0
9:15 pm 21:15 Clear 28 -2 28 -2 100 100 Calm 30.06 1018 10 16.09344 0 0
9:35 pm 21:35 Clear 27 -3 27 -3 100 100 Calm 30.06 1018 5 8.04672 0 0
9:55 pm 21:55 Clear 27 -3 27 -3 100 100 Calm 30.06 1018 2.5 4.02336 0 0
10:15 pm 22:15 Clear 27 -3 27 -3 100 100 Calm 30.06 1018 10 16.09344 0 0
10:35 pm 22:35 Clear 25 -4 25 -4 100 100 WSW 3 6 30.06 1018 2 3.218688 0 0
10:55 pm 22:55 Mostly Cloudy 23 -5 23 -5 100 100 SW 5 7 30.06 1018 0.75 1.207008 0 0
11:15 pm 23:15 Clear 25 -4 25 -4 100 100 Calm 30.06 1018 5 8.04672 0 0
11:35 pm 23:35 Clear 25 -4 25 -4 100 100 Calm 30.06 1018 7 11.265408 0 0
11:55 pm 23:55 Mostly Cloudy 21 -6 21 -6 100 100 Calm 30.06 1018 0.5 0.804672 0 0

Powered by AerisWeather